sat.trackr.live / text

‹ back to catalog

CENTISPACE-1 S11

NORAD 62580 · 2025-007F

PAYLOAD ACTIVE UNKNOWN

§ Identity

Operator
Country
PRC
Launch date
2025-01-13
Launch site
YSLA
Launch vehicle
Mass (kg)
RCS (m²)

External: N2YO · Heavens-Above · Gunter

§ Orbital elements

Epoch: 2026-09-22T17:46:41.383200Z

Period
104.31 min
Inclination
54.9782°
Eccentricity
0.0009132
Mean motion
13.80560938 rev/d
Perigee alt
955.2 km
Apogee alt
968.6 km
Semi-major
7,340.0 km
B*
7.6036e-5
RAAN
309.9252°
Arg perigee
293.7256°
Mean anomaly
66.2742°
Rev number
8,820

§ Raw data

CENTISPACE-1 S111 62580U 25007F   26265.74075675 -.00000060  00000+0  76036-4 0  99992 62580  54.9782 309.9252 0009132 293.7256  66.2742 13.80560938 88205

JSON: /api/v1/satellites/62580 · /tle

For live sub-satellite position, see the globe view (requires WebGL).

§ Visibility from observer

Set your observer location to see the next 7 days of passes ≥ 10°. The values pass through the URL so the page stays shareable.

No JS? Fill the form by hand. The geolocation button needs JavaScript.

§ Radio — SatNOGS DB

ModeDescriptionDownlinkUplink
FM S-band telemetry 2.227 GHz
FM S-band telemetry 2.235 GHz

2 transmitters · refreshed weekly from db.satnogs.org